Flag for U.S.A. Weather past 2 weeks in Manassas, Virginia, U.S.A.

Now
63 °F

Low clouds.


Feels Like: 63 °F
Forecast: 60 / 78 °F
Wind: No wind

Location: Manassas Municipal

Current Time: Jul 3, 2015 at 4:39:11 AM

Latest Report: Jul 3, 2015 at 4:15 AM


Visibility: 0 mi

Pressure: 29.93 "Hg

Humidity: 94%

Dew point: 61 °F

Location of ManassasLocation

Historic Weather in Manassas — Graph

°F

Manassas temperature yesterday

Maximum temperature yesterday: 73 °F (at 12:15 AM)
Minimum temperature yesterday: 63 °F (at 11:55 PM)
Average temperature yesterday: 69 °F

Past Weeks' High & Low Weather Summary

 TemperatureHumidityPressure
High93 °F (Jun 23, 3:50 PM)100% (Jun 18, 3:15 AM)30.12 "Hg (Jun 18, 3:15 AM)
Low55 °F (Jun 29, 4:35 AM)34% (Jun 29, 2:45 PM)29.67 "Hg (Jun 28, 12:55 AM)
Average72 °F86%29.93 "Hg
* Reported Jun 18 3:15 AM — Jul 3 3:35 AM, Manassas, Weather by CustomWeather, © 2015

Note: Actual official high and low records may vary slightly from our data, if they occured in-between our weather recording intervals... More about our weather records

Advertising

Manassas weather history for previous 24 hours

 ConditionsComfort  
Time TempWeatherWind HumidityBarometerVisibility
3:35 AM
Fri, Jul 3
63 °FLow clouds.No wind100%29.92 "Hg0 mi
3:15 AM63 °FLow clouds.No wind100%29.93 "Hg0 mi
2:55 AM63 °FLow clouds.No wind94%29.93 "Hg0 mi
2:35 AM63 °FLow clouds.No wind94%29.93 "Hg0 mi
1:55 AM63 °FLow clouds.No wind100%29.93 "Hg1 mi
1:35 AM63 °FMostly cloudy.No wind100%29.93 "Hg1 mi
1:15 AM63 °FPassing clouds.No wind100%29.93 "Hg2 mi
12:55 AM63 °FLow clouds.No wind100%29.93 "Hg3 mi
12:35 AM63 °FLow clouds.No wind100%29.93 "Hg1 mi
11:55 PM
Thu, Jul 2
63 °FLow clouds.3 mph100%29.93 "Hg1 mi
11:35 PM64 °FClear.No wind100%29.92 "Hg2 mi
10:55 PM64 °FClear.No wind94%29.91 "Hg3 mi
10:35 PM66 °FClear.No wind100%29.92 "Hg4 mi
9:45 PM66 °FClear.No wind100%29.92 "Hg10 mi
6:45 PM73 °FSunny.3 mph74%29.89 "Hg10 mi
5:45 PM73 °FOvercast.5 mph74%29.89 "Hg10 mi
4:55 PM73 °FOvercast.3 mph78%29.90 "Hg10 mi
3:50 PM73 °FOvercast.6 mph74%29.91 "Hg10 mi
2:45 PM73 °FOvercast.6 mph74%29.91 "Hg10 mi
1:45 PM73 °FOvercast.6 mph78%29.90 "Hg10 mi
12:55 PM73 °FOvercast.7 mph78%29.91 "Hg7 mi
11:45 AM72 °FOvercast.No wind88%29.91 "Hg9 mi
10:45 AM70 °FOvercast.No wind88%29.91 "Hg7 mi
9:50 AM66 °FOvercast.No wind100%29.91 "Hg7 mi
7:45 AM68 °FLight rain. Overcast.3 mph94%29.92 "Hg5 mi
6:55 AM68 °FMostly cloudy.8 mph94%29.90 "Hg7 mi
6:15 AM70 °FOvercast.7 mph88%29.89 "Hg5 mi
5:55 AM68 °FOvercast.5 mph94%29.89 "Hg5 mi
5:35 AM68 °FOvercast.3 mph100%29.89 "Hg9 mi
5:15 AM68 °FPassing clouds.No wind100%29.88 "Hg7 mi
4:55 AM68 °FPassing clouds.5 mph94%29.88 "Hg7 mi
4:35 AM68 °FPassing clouds.No wind94%29.87 "Hg7 mi
4:15 AM68 °FPassing clouds.No wind100%29.88 "Hg6 mi
Weather by CustomWeather, © 2015

See weather overviewHow to use our weather pages